Regional Weather Roundup
Issued by NWS

Home | Current Version | Previous Version | Graphics & Text | Print | Product List | Glossary On
Versions: 1 2 3 4 5 6 7 8 9 10 11 12 13 14 15 16 17 18 19 20 21 22 23 24 25 26 27 28 29 30 31 32 33 34 35 36 37 38 39 40 41 42 43 44 45 46 47 48 49 50
000
ASUS43 KMPX 021210
RWRMN
WEATHER ROUNDUP FOR MINNESOTA
NATIONAL WEATHER SERVICE TWIN CITIES/CHANHASSEN MN
700 AM CDT TUE SEP 02 2014


NOTE: "FAIR" INDICATES FEW OR NO CLOUDS BELOW 12,000 FEET WITH NO
SIGNIFICANT WEATHER AND/OR OBSTRUCTIONS TO VISIBILITY. N/A MEANS
CURRENT SKY AND/OR WEATHER CONDITIONS ARE NOT AVAILABLE.

MNZ060>063-068>070-021300-
   Twin Cities Metro

CITY           SKY/WX    TMP DP  RH WIND       PRES   REMARKS
TWIN CITIES    CLOUDY    62  58  86 SW9       29.87R
6HR MIN TEMP:  62; 6HR MAX TEMP:  66;

ST PAUL        CLOUDY    62  59  90 CALM      29.86R
CRYSTAL        CLOUDY    62  56  80 SW3       29.85R
BLAINE         CLOUDY    61  59  94 CALM      29.86R
LAKEVILLE      CLOUDY    59  55  88 W5        29.87S
EDEN PRAIRIE   CLOUDY    60  58  92 SW6       29.87R
6HR MIN TEMP:  60; 6HR MAX TEMP:  64;

SOUTH ST PAUL  CLOUDY    63  58  85 CALM      29.87R
LAKE ELMO      FAIR      59  59 100 CALM      29.87S
$$
MNZ001>005-007-008-013>017-022>024-027-028-021300-
   Northwest Minnesota

CITY           SKY/WX    TMP DP  RH WIND       PRES   REMARKS
BEMIDJI        PTCLDY    51  49  94 SW6       29.80S
HALLOCK        CLEAR     46  45  93 S6        29.75R
ROSEAU           N/A     46  43  87 SW3       29.75S
WARROAD        CLEAR     48  45  87 SW5       29.75S
THIEF RVR FALL CLEAR     48  46  93 S5        29.78S
CROOKSTON      PTCLDY    48  46  93 S5        29.79S
FOSSTON        CLEAR     46  46 100 S5        29.81S
DETROIT LAKES  CLEAR     54  52  94 SW3       29.84R
MOORHEAD       CLEAR     52  52 100 CALM      29.83R
PARK RAPIDS    CLEAR     51  49  92 CALM      29.83R
MAHNOMEN       FAIR      49  48  97 S7        29.82R
$$
MNZ006-009>011-018-025>026-021300-
   North Central Minnesota

CITY           SKY/WX    TMP DP  RH WIND       PRES   REMARKS
BAUDETTE       PTCLDY    47  46  97 S5        29.74S
FLAG ISLAND    CLEAR     55  50  82 W8        29.71F
INTL FALLS     CLEAR     46  46 100 SW7       29.77R
6HR MIN TEMP:  46; 6HR MAX TEMP:  50;

WASKISH        CLEAR     55  52  88 CALM      29.78R
BIG FORK       PTCLDY    46  45  93 CALM      29.81R FOG
LONGVILLE      CLEAR     54  52  94 CALM      29.82S
GRAND RAPIDS   CLEAR     50  46  87 CALM      29.82R
CRANE LAKE     CLEAR     43  41  93 CALM      29.79S
ORR            CLEAR     48  45  87 CALM      29.77S
COOK           CLEAR     46  45  93 CALM      29.80S
WALKER         FAIR      54  50  87 W5        29.83R
$$
MNZ012-019>021-037-021300-
   Northeast Minnesota

CITY           SKY/WX    TMP DP  RH WIND       PRES   REMARKS
DULUTH         PTCLDY    51  48  89 W5        29.82R
6HR MIN TEMP:  51; 6HR MAX TEMP:  58;

ELY            CLEAR     48  46  93 CALM      29.80R
HIBBING        FOG       42  40  92 CALM      29.81S VSB 1/4
EVELETH        FOG       46  46 100 CALM      29.82S VSB 1/4
DULUTH HARBOR  PTCLDY    55  54  94 SW10      29.82R
TWO HARBORS    MOCLDY    54  48  82 NW6       29.79R
SILVER BAY     PTCLDY    52  52 100 CALM      29.78R
GRAND MARAIS     N/A     59  51  75 VRB7      29.75S
G MARAIS ARPRT PTCLDY    52  46  82 W6        29.79R
$$
MNZ029>031-032-039>041-046>048-054>057-064-021300-
   West Central Minnesota

CITY           SKY/WX    TMP DP  RH WIND       PRES   REMARKS
FERGUS FALLS   CLEAR     52  50  93 S3        29.86R
WHEATON        CLEAR     52  50  93 SW5       29.88R
MORRIS         CLEAR     52  50  93 S3        29.87R
ALEXANDRIA     CLEAR     53  51  93 SW6       29.88R
ELBOW LAKE     FAIR      51  51  99 S5        29.86S
WADENA         CLEAR     50  48  93 SW3       29.84S
GLENWOOD       CLEAR     54  52  94 SW5       29.88R
APPLETON       CLEAR     54  52  94 SW3       29.88R
BENSON           N/A     52  52 100 CALM      29.88R FOG
ORTONVILLE     CLEAR     55  52  88 W5        29.88R
MADISON        CLEAR     54  54 100 SW5       29.89R
WILLMAR        FAIR      54  52  94 SW3       29.89S
$$
MNZ033>034-036-042>043-049>051-058-059-021300-
   Central Minnesota

CITY           SKY/WX    TMP DP  RH WIND       PRES   REMARKS
ST CLOUD       PTCLDY    56  53  90 CALM      29.86R
6HR MIN TEMP:  56; 6HR MAX TEMP:  62;

SAUK CENTRE    FAIR      52  52 100 CALM      29.87R
PAYNESVILLE    HVY RAIN  50  50 100 SW5       29.88R
AITKIN         HAZE      52  46  82 CALM      29.83R VSB<1/4
PINE RIVER     CLEAR     45  45 100 CALM      29.87S FOG
BRAINERD       CLEAR     49  48  97 S3        29.85R
STAPLES        CLEAR     46  46 100 CALM      29.85R
LONG PRAIRIE   FAIR      50  50 100 CALM      29.87R
LITTLE FALLS     N/A     48  46  93 CALM      29.86R FOG
LITCHFIELD     CLEAR     57  57 100 CALM      29.88R
BUFFALO        MOCLDY    59  56  89 CALM      29.88R
MAPLE LAKE     MOCLDY    59  57  94 CALM      29.87S
$$
MNZ037-044-045-052-053-021300-
   East Central Minnesota

CITY           SKY/WX    TMP DP  RH WIND       PRES   REMARKS
PRINCETON      MOCLDY    54  54 100 S1        29.85S
MORA           MOCLDY    50  50 100 CALM      29.86S
CAMBRIDGE      MOCLDY    55  48  76 CALM      29.84R
RUSH CITY      MOCLDY    52  51  96 CALM      29.85S
MOOSE LAKE     FOG       46  46 100 CALM      29.82R VSB 1/4
HINCKLEY       FAIR      50  50 100 CALM      29.84S
CLOQUET        PTCLDY    48  46  93 W3        29.83R
MCGREGOR       PTCLDY    50  50 100 CALM      29.84S
$$
MNZ071>073-080-081-089-090-097-098-021300-
   Southwest Minnesota

CITY           SKY/WX    TMP DP  RH WIND       PRES   REMARKS
MONTEVIDEO     CLEAR     55  54  94 W5        29.89S
GRANITE FALLS  CLEAR     53  52  98 SW5       29.90R
CANBY          CLEAR     56  54  91 W7        29.90S
MARSHALL       CLEAR     55  52  88 W6        29.88S
REDWOOD FALLS  PTCLDY    59  55  87 W7        29.89R
OLIVIA         CLEAR     54  52  94 SW5       29.89R
PIPESTONE      CLEAR     52  50  93 CALM      29.92S
WINDOM         CLEAR     55  54  94 CALM      29.91S
WORTHINGTON    CLEAR     55  54  94 W6        29.93S
JACKSON        CLEAR     55  52  88 SW5       29.92S
TRACY          MOCLDY    59  55  85 W5        29.90S
SLAYTON        CLEAR     56  53  92 CALM      29.92S
$$
MNZ065>067-074>077-082>085-091>093-021300-
   South Central Minnesota

CITY           SKY/WX    TMP DP  RH WIND       PRES   REMARKS
MANKATO        MOCLDY    59  54  82 CALM      29.89R
NEW ULM          N/A     57  57 100 W5        29.89S
ST JAMES       CLEAR     57  55  94 W6        29.91R
FAIRMONT       CLOUDY    57  52  82 SW3       29.91R
GLENCOE        MOCLDY    60  55  85 SW5       29.88R
FARIBAULT      CLOUDY    63  55  77 W7        29.89S
OWATONNA       LGT RAIN  61  55  82 SE3       29.88F
WASECA         CLOUDY    55  52  88 CALM      29.90F
ALBERT LEA     CLOUDY    61  57  88 CALM      29.91F
$$
MNZ078>079-086>088-094>096-021300-
   Southeast Minnesota

CITY           SKY/WX    TMP DP  RH WIND       PRES   REMARKS
ROCHESTER      CLOUDY    60  56  86 SW9       29.92R
6HR MIN TEMP:  57; 6HR MAX TEMP:  60; 6HR PCP: TRACE;

RED WING       LGT RAIN  63  61  94 W3        29.87R
STANTON        CLOUDY    62  57  84 SW3       29.86S
DODGE CENTER   CLOUDY    63  55  77 NW15      29.90R
WINONA         CLOUDY    61  57  88 CALM      29.88R
AUSTIN         RAIN      61  55  82 SW5       29.92R
PRESTON        CLOUDY    60  60 100 CALM      29.93R
$$
ABBREVIATIONS USED IN REMARKS
   TC - TEMPERATURES IN CELSIUS
  WCI - WIND CHILL INDEX
   HX - HEAT INDEX
  VSB - VISIBILITY
$$



USA.gov is the U.S. government's official web portal to all federal, state and local government web resources and services.